You are not logged in, Click here to log in
ICAO: VNKT Country: 尼泊爾首都加德滿都的國際機場
Latitude: 27.6981 Longitude: 85.3592
Total Arrivals: 9 Total Departures: 10
Latest Arrival: KB400 (VQPR-VNKT)Arthur. Kung Latest Departure: TV9900 (VNKT-ZUUU)Arthur. Kung
Scenery:
METAR : VNKT 180720Z 21009KT 180V240 8000 FEW015 FEW025CB SCT050 BKN100 28/22 Q1013 NOSIG CB TO N AND NE

特裡布萬國際機場 KTM